Location: Newark
(49.4900°N, 20.6656°E)
Time: 01:44:12
(UTC+00:00)

STARLINK-1751 - Pass Details

Date: 24 September 2020
Orbit: 378 x 380 km, 53.0° (Epoch: 29 October)

Event Time Altitude Azimuth Distance (km) Brightness Sun altitude
Exits shadow 03:01:49 22° 307° (NW) 831 4.2 -14.5°
Maximum altitude 03:03:21 44° 10° (N) 499 3.6 -14.2°
Drops below altitude 10° 03:06:10 10° 84° (E) 1,315 6.9 -13.8°
Sets 03:08:14 0° 91° (E) 2,157 8.2 -13.5°
